Weather History for Broomfield, CO

Change the Weather History Date:

Monday, September 29, 2014

  Actual Average Record
Temperature  
Mean Temperature 54 °F -  
Max Temperature 62 °F 68 °F 83 °F (1992)
Min Temperature 46 °F 45 °F 18 °F (1985)
Degree Days  
Heating Degree Days 11    
Growing Degree Days 4 (Base 50)    
Moisture  
Dew Point 50 °F    
Average Humidity 87    
Maximum Humidity 100    
Minimum Humidity 59    
Precipitation  
Precipitation 0.00 in - - ()
Sea Level Pressure  
Sea Level Pressure 30.00 in    
Wind  
Wind Speed 6 mph (North)    
Max Wind Speed 16 mph    
Max Gust Speed -    
Visibility 10 miles    
Events Rain , Thunderstorm    
Averages and records for this station are not official NWS values.
T = Trace of Precipitation, MM = Missing Value Source: NWS Daily Summary

Daily Weather History Graph

Daily Weather History Graph

Search for Another Location

Airport:

Trip Planner

Search our weather history database for the weather conditions in past years. The results will help you decide how hot, cold, wet, or windy it might be!

Date:

Astronomy

Sep. 29, 2014 Rise Set
Actual Time 6:54 AM MDT 6:45 PM MDT
Civil Twilight 6:27 AM MDT 7:12 PM MDT
Nautical Twilight 5:56 AM MDT 7:44 PM MDT
Astronomical Twilight 5:24 AM MDT 8:15 PM MDT
Moon 12:08 PM MDT (9/29) 10:22 PM MDT (9/29)
Length of Visible Light 12h 45m
Length of Day
11h 51m
Waxing Crescent, 28% of the Moon is Illuminated
Sep 29
Waxing Crescent
Oct 1
First Quarter
Oct 8
Full
Oct 15
Last Quarter
Oct 23
New

Hourly Weather History & Observations

Time (MDT) Temp. Windchill Dew Point Humidity Pressure Visibility Wind Dir Wind Speed Gust Speed Precip Events Conditions
12:15 AM 55.4 °F - 51.8 °F 88% 30.09 in 10.0 mi NNW 8.1 mph - N/A   Overcast
12:35 AM 55.4 °F - 50.0 °F 82% 30.09 in 10.0 mi NNW 9.2 mph - N/A   Overcast
12:43 AM 55.4 °F - 50.0 °F 82% 30.09 in 10.0 mi NNW 6.9 mph - N/A   Overcast
1:12 AM 55.4 °F - 50.0 °F 82% 30.09 in 10.0 mi NNW 5.8 mph - N/A   Overcast
1:23 AM 55.4 °F - 50.0 °F 82% 30.09 in 10.0 mi NNW 5.8 mph - N/A   Overcast
2:12 AM 55.4 °F - 50.0 °F 82% 30.08 in 10.0 mi NNW 5.8 mph - N/A   Clear
2:35 AM 53.6 °F - 50.0 °F 88% 30.07 in 10.0 mi North 5.8 mph - N/A   Clear
2:55 AM 53.6 °F - 50.0 °F 88% 30.07 in 10.0 mi NE 3.5 mph - N/A   Scattered Clouds
3:15 AM 53.6 °F - 50.0 °F 88% 30.07 in 10.0 mi Calm Calm - N/A   Mostly Cloudy
3:30 AM 53.6 °F - 50.0 °F 88% 30.07 in 10.0 mi NE 3.5 mph - N/A   Overcast
3:53 AM 53.6 °F - 50.0 °F 88% 30.07 in 10.0 mi North 6.9 mph - N/A Rain Light Rain
4:08 AM 53.6 °F - 50.0 °F 88% 30.07 in 10.0 mi NNE 4.6 mph - N/A Rain Light Rain
4:35 AM 51.8 °F - 50.0 °F 94% 30.06 in 10.0 mi North 5.8 mph - N/A   Mostly Cloudy
4:55 AM 51.8 °F - 50.0 °F 94% 30.06 in 10.0 mi North 6.9 mph - N/A   Mostly Cloudy
5:11 AM 51.8 °F - 50.0 °F 94% 30.06 in 10.0 mi North 4.6 mph - N/A   Mostly Cloudy
5:31 AM 51.8 °F - 50.0 °F 94% 30.07 in 10.0 mi NNW 3.5 mph - N/A   Mostly Cloudy
5:47 AM 53.6 °F - 50.0 °F 88% 30.07 in 20.0 mi NNW 3.5 mph - N/A   Mostly Cloudy
5:55 AM 51.8 °F - 50.0 °F 94% 30.07 in 10.0 mi Calm Calm - N/A   Overcast
6:47 AM 53.6 °F - 50.0 °F 88% 30.06 in 20.0 mi Calm Calm - N/A   Mostly Cloudy
7:53 AM 55.4 °F - 51.8 °F 88% 30.07 in 40.0 mi Calm Calm - N/A   Mostly Cloudy
8:50 AM 57.2 °F - 51.8 °F 82% 30.08 in 30.0 mi Calm Calm - N/A   Overcast
9:45 AM 57.2 °F - 50.0 °F 77% 30.07 in 30.0 mi Calm Calm - N/A   Mostly Cloudy
10:47 AM 57.2 °F - 50.0 °F 77% 30.07 in 30.0 mi NNE 5.8 mph - N/A   Overcast
11:48 AM 60.8 °F - 50.0 °F 68% 30.03 in 30.0 mi NNE 4.6 mph - N/A   Mostly Cloudy
12:50 PM 62.6 °F - 48.2 °F 59% 30.00 in 30.0 mi ENE 4.6 mph - N/A   Overcast
1:34 PM 62.6 °F - 48.2 °F 59% 29.96 in 30.0 mi NE 11.5 mph - N/A Rain , Thunderstorm Light Thunderstorms and Rain
1:59 PM 60.8 °F - 50.0 °F 68% 29.93 in 4.0 mi North 13.8 mph - N/A Rain , Thunderstorm Thunderstorms and Rain
2:45 PM 55.4 °F - 53.6 °F 94% 29.93 in 3.0 mi WNW 16.1 mph - N/A Rain , Thunderstorm Heavy Thunderstorms and Rain
2:54 PM 55.4 °F - 53.6 °F 94% 29.92 in 4.0 mi NNW 13.8 mph - N/A Rain Light Rain
3:46 PM 55.4 °F - 53.6 °F 94% 29.91 in 10.0 mi NNW 9.2 mph - N/A Rain Light Rain
4:36 PM 55.4 °F - 53.6 °F 94% 29.90 in 10.0 mi WNW 8.1 mph - N/A Thunderstorm Unknown
5:20 PM 55.4 °F - 53.6 °F 94% 29.90 in 10.0 mi Variable 4.6 mph - N/A Rain Light Rain Showers
5:53 PM 53.6 °F - 51.8 °F 94% 29.88 in 4.0 mi Variable 4.6 mph - N/A Rain Light Rain Showers
6:21 PM 55.4 °F - 53.6 °F 94% 29.85 in 8.0 mi North 3.5 mph - N/A Rain Light Rain
6:53 PM 53.6 °F - 53.6 °F 100% 29.83 in 8.0 mi NNW 8.1 mph - N/A Rain Light Rain
7:53 PM 53.6 °F - 50.0 °F 88% 29.84 in 8.0 mi NNW 8.1 mph - N/A   Overcast
8:57 PM 50.0 °F - 46.4 °F 87% 29.88 in 8.0 mi NW 6.9 mph - N/A Rain Light Rain
9:53 PM 48.2 °F - 46.4 °F 93% 29.90 in 8.0 mi NNE 8.1 mph - N/A Rain Light Rain
9:58 PM 48.2 °F - 46.4 °F 93% 29.90 in 8.0 mi NNE 8.1 mph - N/A Rain Light Rain
11:15 PM 46.4 °F 43.5 °F 46.4 °F 100% 29.92 in 10.0 mi South 5.8 mph - N/A   Overcast
11:35 PM 46.4 °F 44.3 °F 44.6 °F 93% 29.91 in 10.0 mi SSE 4.6 mph - N/A   Overcast
11:55 PM 46.4 °F 43.5 °F 44.6 °F 93% 29.91 in 10.0 mi South 5.8 mph - N/A   Scattered Clouds